Погода в Посёлке Маньга

Россия / Республика Карелия     61°38′03″N   33°26′40″E
темп.,
°C
ветер,
м/с
пор.,
м/с
влажн.,
%
обл.,
%
осадки,
мм/ч
давл.,
гПа
погр.,
м
25 июня, сб
сб2500:00+15зюз24893 0.0 101774
03:00+13юз228877 0.0 101828
06:00+17юз2576100 0.0 1018149
09:00+23зюз24560 0.0 1018586
12:00+26з23440 0.0 10181380
15:00+29з344035 0.0 10171930
18:00+28зюз344740 0.0 10181210
21:00+22зюз27730 0.0 1018187
26 июня, вс
вс2600:00+18зюз25885 0.0 102088
03:00+16зюз22865 0.0 102044
06:00+19юз24745 0.0 1020129
09:00+25зюз35555 0.0 1020642
12:00+29з46390 0.0 10191593
15:00+30з46305 0.0 10181993
18:00+29з46385 0.0 10182109
21:00+23з26656 0.0 1018133
27 июня, пн
пн2700:00+18з24753 0.0 101965
03:00+16сз22745 0.0 102031
06:00+18св367915 0.0 1022325
09:00+20св346122 0.0 1023590
12:00+21св33485 0.0 1024852
15:00+24св33415 0.0 10241293
18:00+23св34415 0.0 10241136
21:00+17всв27555 0.0 1025222
28 июня, вт
вт2800:00+13всв310625 0.0 1027290
03:00+10всв39745 0.0 1028248
06:00+11в37715 0.0 1029304
09:00+16всв34485 0.0 1029706
12:00+19всв34350 0.0 10291041
15:00+21всв34280 0.0 10281151
18:00+20в34300 0.0 10281001
21:00+15в22550 0.0 102815
29 июня, ср
ср2900:00+11в22570 0.0 102916
03:00+9вюв11580 0.0 102911
06:00+13юв11555 0.0 102972
09:00+20ю12385 0.0 1028693
12:00+24ююз11285 0.0 10271306
15:00+26зюз22251 0.0 10261616
18:00+26з22270 0.0 10241474
21:00+19зюз24590 0.0 102470